Location: Altmatt
(47.1333°N, 8.7000°E)
Time: 17:31:38
(UTC+00:00)

Cosmos 1727 Rocket - Pass Details

Date: 13 July 2020
Orbit: 962 x 996 km, 82.9° (Epoch: 12 August)

Event Time Altitude Azimuth Distance (km) Brightness Sun altitude
Rises 21:51:19 0° 354° (N) 3,683 8.4 -17.6°
Reaches altitude 10° 21:53:55 10° 360° (N) 2,737 7.4 -17.8°
Maximum altitude 22:00:01 52° 76° (ENE) 1,208 4.4 -18.2°
Enters shadow 22:03:11 28° 138° (SE) 1,758 4.8 -18.4°
